Time,TemperatureF,DewpointF,PressureIn,WindDirection,WindDirectionDegrees,WindSpeedMPH,WindSpeedGustMPH,Humidity,HourlyPrecipIn,Conditions,Clouds,dailyrainin,SoftwareType,DateUTC
2013-09-02 00:11:00,59.4,44.6,29.69,South,180,0.0,-999.0,58,-99.99,,,0.00,Acu-Link.com,2013-09-02 07:11:00,
2013-09-02 00:27:00,58.6,46.0,29.70,East,90,0.0,-999.0,63,-99.99,,,0.00,Acu-Link.com,2013-09-02 07:27:00,
2013-09-02 00:42:00,58.1,44.3,29.70,WNW,292,0.0,-999.0,60,-99.99,,,0.00,Acu-Link.com,2013-09-02 07:42:00,
2013-09-02 00:57:00,57.9,44.5,29.69,WNW,292,0.0,-999.0,61,-99.99,,,0.00,Acu-Link.com,2013-09-02 07:57:00,
2013-09-02 01:13:00,57.9,44.5,29.71,WSW,247,0.0,-999.0,61,-99.99,,,0.00,Acu-Link.com,2013-09-02 08:13:00,
2013-09-02 01:29:00,57.9,45.0,29.71,East,90,0.0,-999.0,62,-99.99,,,0.00,Acu-Link.com,2013-09-02 08:29:00,
2013-09-02 01:44:00,57.9,45.4,29.70,NNE,22,0.0,-999.0,63,-99.99,,,0.00,Acu-Link.com,2013-09-02 08:44:00,
2013-09-02 01:59:00,57.4,44.9,29.70,WNW,292,0.0,-999.0,63,-99.99,,,0.00,Acu-Link.com,2013-09-02 08:59:00,
2013-09-02 02:15:00,56.7,43.4,29.69,West,270,0.0,-999.0,61,-99.99,,,0.00,Acu-Link.com,2013-09-02 09:15:00,
2013-09-02 02:30:00,55.8,43.4,29.69,ESE,112,0.0,-999.0,63,-99.99,,,0.00,Acu-Link.com,2013-09-02 09:30:00,
2013-09-02 02:45:00,55.8,44.2,29.69,ESE,112,0.0,-999.0,65,-99.99,,,0.00,Acu-Link.com,2013-09-02 09:45:00,
2013-09-02 03:00:00,55.4,43.0,29.69,WSW,247,0.0,-999.0,63,-99.99,,,0.00,Acu-Link.com,2013-09-02 10:00:00,
2013-09-02 03:15:00,54.7,43.6,29.70,WNW,292,0.0,-999.0,66,-99.99,,,0.00,Acu-Link.com,2013-09-02 10:15:00,
2013-09-02 03:31:00,54.3,42.4,29.70,WNW,292,0.0,-999.0,64,-99.99,,,0.00,Acu-Link.com,2013-09-02 10:31:00,
2013-09-02 03:46:00,54.1,43.8,29.70,ESE,112,0.0,-999.0,68,-99.99,,,0.00,Acu-Link.com,2013-09-02 10:46:00,
2013-09-02 04:01:00,53.8,42.7,29.69,NW,315,1.7,-999.0,66,-99.99,,,0.00,Acu-Link.com,2013-09-02 11:01:00,
2013-09-02 04:17:00,53.6,42.9,29.70,WNW,292,0.0,-999.0,67,-99.99,,,0.00,Acu-Link.com,2013-09-02 11:17:00,
2013-09-02 04:32:00,53.6,42.5,29.70,West,270,0.0,-999.0,66,-99.99,,,0.00,Acu-Link.com,2013-09-02 11:32:00,
2013-09-02 04:47:00,53.8,43.1,29.71,ENE,67,0.0,-999.0,67,-99.99,,,0.00,Acu-Link.com,2013-09-02 11:47:00,
2013-09-02 05:02:00,54.1,43.8,29.73,North,0,0.0,-999.0,68,-99.99,,,0.00,Acu-Link.com,2013-09-02 12:02:00,
2013-09-02 05:18:00,54.9,44.5,29.72,NNW,337,0.0,-999.0,68,-99.99,,,0.00,Acu-Link.com,2013-09-02 12:18:00,
2013-09-02 05:33:00,55.0,45.4,29.72,NNW,337,0.0,-999.0,70,-99.99,,,0.00,Acu-Link.com,2013-09-02 12:33:00,
2013-09-02 05:48:00,54.9,45.7,29.73,NE,45,0.0,-999.0,71,-99.99,,,0.00,Acu-Link.com,2013-09-02 12:48:00,
2013-09-02 06:04:00,55.2,46.7,29.73,West,270,0.0,-999.0,73,-99.99,,,0.00,Acu-Link.com,2013-09-02 13:04:00,
2013-09-02 06:19:00,55.0,47.6,29.76,West,270,1.7,-999.0,76,-99.99,,,0.00,Acu-Link.com,2013-09-02 13:19:00,
2013-09-02 06:34:00,55.4,48.7,29.77,East,90,3.2,-999.0,78,-99.99,,,0.00,Acu-Link.com,2013-09-02 13:34:00,
2013-09-02 06:50:00,54.7,49.6,29.75,NW,315,4.2,-999.0,83,-99.99,,,0.01,Acu-Link.com,2013-09-02 13:50:00,
2013-09-02 07:05:00,54.7,49.6,29.76,NNW,337,0.0,-999.0,83,-99.99,,,0.02,Acu-Link.com,2013-09-02 14:05:00,
2013-09-02 07:20:00,55.2,50.5,29.79,ESE,112,1.1,-999.0,84,-99.99,,,0.02,Acu-Link.com,2013-09-02 14:20:00,
2013-09-02 07:36:00,55.8,51.0,29.79,SW,225,0.0,-999.0,84,-99.99,,,0.02,Acu-Link.com,2013-09-02 14:36:00,
2013-09-02 07:51:00,55.9,51.1,29.78,NW,315,0.0,-999.0,84,-99.99,,,0.02,Acu-Link.com,2013-09-02 14:51:00,
2013-09-02 08:06:00,56.3,51.8,29.78,WSW,247,0.0,-999.0,85,-99.99,,,0.02,Acu-Link.com,2013-09-02 15:06:00,
2013-09-02 08:22:00,57.0,52.2,29.77,WNW,292,0.0,-999.0,84,-99.99,,,0.02,Acu-Link.com,2013-09-02 15:22:00,
2013-09-02 08:37:00,57.7,52.6,29.78,WNW,292,0.0,-999.0,83,-99.99,,,0.02,Acu-Link.com,2013-09-02 15:37:00,
2013-09-02 08:52:00,59.0,52.8,29.78,ENE,67,0.0,-999.0,80,-99.99,,,0.02,Acu-Link.com,2013-09-02 15:52:00,
2013-09-02 09:08:00,59.9,53.7,29.79,NW,315,0.0,-999.0,80,-99.99,,,0.02,Acu-Link.com,2013-09-02 16:08:00,
2013-09-02 09:23:00,60.3,52.7,29.79,NW,315,1.1,-999.0,76,-99.99,,,0.02,Acu-Link.com,2013-09-02 16:23:00,
2013-09-02 09:38:00,61.9,53.9,29.78,NW,315,0.0,-999.0,75,-99.99,,,0.02,Acu-Link.com,2013-09-02 16:38:00,
2013-09-02 09:54:00,64.4,54.4,29.79,ESE,112,1.1,-999.0,70,-99.99,,,0.02,Acu-Link.com,2013-09-02 16:54:00,
2013-09-02 10:09:00,65.7,54.0,29.79,East,90,0.0,-999.0,66,-99.99,,,0.02,Acu-Link.com,2013-09-02 17:09:00,
2013-09-02 10:24:00,66.0,53.9,29.79,NW,315,0.0,-999.0,65,-99.99,,,0.02,Acu-Link.com,2013-09-02 17:24:00,
2013-09-02 10:40:00,67.1,54.9,29.79,NW,315,0.0,-999.0,65,-99.99,,,0.02,Acu-Link.com,2013-09-02 17:40:00,
2013-09-02 10:55:00,68.2,54.7,29.79,NNW,337,0.0,-999.0,62,-99.99,,,0.02,Acu-Link.com,2013-09-02 17:55:00,
2013-09-02 11:10:00,69.3,54.8,29.79,NNW,337,0.0,-999.0,60,-99.99,,,0.02,Acu-Link.com,2013-09-02 18:10:00,
2013-09-02 11:26:00,70.0,55.0,29.79,East,90,0.0,-999.0,59,-99.99,,,0.02,Acu-Link.com,2013-09-02 18:26:00,
2013-09-02 11:41:00,70.9,54.9,29.79,East,90,1.7,-999.0,57,-99.99,,,0.02,Acu-Link.com,2013-09-02 18:41:00,
2013-09-02 11:56:00,73.0,56.4,29.80,ENE,67,2.7,-999.0,56,-99.99,,,0.02,Acu-Link.com,2013-09-02 18:56:00,
2013-09-02 12:11:00,73.6,56.4,29.80,North,0,0.0,-999.0,55,-99.99,,,0.02,Acu-Link.com,2013-09-02 19:11:00,
2013-09-02 12:27:00,74.7,56.4,29.79,North,0,0.0,-999.0,53,-99.99,,,0.02,Acu-Link.com,2013-09-02 19:27:00,
2013-09-02 12:42:00,75.6,56.7,29.78,WNW,292,0.0,-999.0,52,-99.99,,,0.02,Acu-Link.com,2013-09-02 19:42:00,
2013-09-02 12:57:00,77.2,57.7,29.78,SSW,202,1.1,-999.0,51,-99.99,,,0.02,Acu-Link.com,2013-09-02 19:57:00,
2013-09-02 13:12:00,77.9,58.8,29.78,SW,225,0.0,-999.0,52,-99.99,,,0.02,Acu-Link.com,2013-09-02 20:12:00,
2013-09-02 13:28:00,79.2,57.8,29.78,ESE,112,2.7,-999.0,48,-99.99,,,0.02,Acu-Link.com,2013-09-02 20:28:00,
2013-09-02 13:43:00,79.5,58.6,29.77,ENE,67,1.7,-999.0,49,-99.99,,,0.02,Acu-Link.com,2013-09-02 20:43:00,
2013-09-02 13:58:00,82.2,58.1,29.78,NE,45,2.2,-999.0,44,-99.99,,,0.02,Acu-Link.com,2013-09-02 20:58:00,
2013-09-02 14:14:00,82.0,57.3,29.77,East,90,6.3,-999.0,43,-99.99,,,0.02,Acu-Link.com,2013-09-02 21:14:00,
2013-09-02 14:29:00,84.0,57.7,29.76,ESE,112,3.7,-999.0,41,-99.99,,,0.02,Acu-Link.com,2013-09-02 21:29:00,
2013-09-02 14:44:00,83.1,56.2,29.76,ESE,112,2.2,-999.0,40,-99.99,,,0.02,Acu-Link.com,2013-09-02 21:44:00,
2013-09-02 14:59:00,83.7,56.8,29.77,ESE,112,3.7,-999.0,40,-99.99,,,0.02,Acu-Link.com,2013-09-02 21:59:00,
2013-09-02 15:14:00,82.2,56.8,29.76,SSE,157,3.7,-999.0,42,-99.99,,,0.02,Acu-Link.com,2013-09-02 22:14:00,
2013-09-02 15:29:00,81.0,57.0,29.78,East,90,7.8,-999.0,44,-99.99,,,0.02,Acu-Link.com,2013-09-02 22:29:00,
2013-09-02 15:44:00,79.3,57.3,29.77,ESE,112,6.3,-999.0,47,-99.99,,,0.02,Acu-Link.com,2013-09-02 22:44:00,
2013-09-02 15:59:00,78.4,57.6,29.78,SSE,157,3.7,-999.0,49,-99.99,,,0.02,Acu-Link.com,2013-09-02 22:59:00,
2013-09-02 16:14:00,75.7,57.3,29.78,West,270,2.7,-999.0,53,-99.99,,,0.02,Acu-Link.com,2013-09-02 23:14:00,
2013-09-02 16:30:00,76.5,58.1,29.78,SSW,202,2.7,-999.0,53,-99.99,,,0.02,Acu-Link.com,2013-09-02 23:30:00,
2013-09-02 16:45:00,76.1,57.7,29.78,ESE,112,4.2,-999.0,53,-99.99,,,0.02,Acu-Link.com,2013-09-02 23:45:00,
2013-09-02 17:00:00,76.1,57.7,29.78,SSE,157,4.2,-999.0,53,-99.99,,,0.02,Acu-Link.com,2013-09-03 00:00:00,
2013-09-02 17:15:00,75.6,57.8,29.78,West,270,2.7,-999.0,54,-99.99,,,0.02,Acu-Link.com,2013-09-03 00:15:00,
2013-09-02 17:31:00,75.6,57.8,29.78,ESE,112,1.7,-999.0,54,-99.99,,,0.02,Acu-Link.com,2013-09-03 00:31:00,
2013-09-02 17:46:00,76.1,58.2,29.78,ESE,112,2.2,-999.0,54,-99.99,,,0.02,Acu-Link.com,2013-09-03 00:46:00,
2013-09-02 18:01:00,75.6,57.8,29.77,ENE,67,2.7,-999.0,54,-99.99,,,0.02,Acu-Link.com,2013-09-03 01:01:00,
2013-09-02 18:17:00,75.2,57.4,29.77,WNW,292,0.0,-999.0,54,-99.99,,,0.02,Acu-Link.com,2013-09-03 01:17:00,
2013-09-02 18:32:00,75.0,57.2,29.77,ESE,112,0.0,-999.0,54,-99.99,,,0.02,Acu-Link.com,2013-09-03 01:32:00,
2013-09-02 18:47:00,74.3,57.1,29.77,West,270,0.0,-999.0,55,-99.99,,,0.02,Acu-Link.com,2013-09-03 01:47:00,
2013-09-02 19:02:00,73.6,56.9,29.77,South,180,0.0,-999.0,56,-99.99,,,0.02,Acu-Link.com,2013-09-03 02:02:00,
2013-09-02 19:18:00,72.1,56.5,29.77,South,180,0.0,-999.0,58,-99.99,,,0.02,Acu-Link.com,2013-09-03 02:18:00,
2013-09-02 19:33:00,71.1,57.0,29.77,ESE,112,0.0,-999.0,61,-99.99,,,0.02,Acu-Link.com,2013-09-03 02:33:00,
2013-09-02 19:48:00,70.0,56.8,29.76,NNW,337,0.0,-999.0,63,-99.99,,,0.02,Acu-Link.com,2013-09-03 02:48:00,
2013-09-02 20:04:00,68.9,56.6,29.77,East,90,0.0,-999.0,65,-99.99,,,0.02,Acu-Link.com,2013-09-03 03:04:00,
2013-09-02 20:19:00,67.8,56.0,29.78,NNE,22,0.0,-999.0,66,-99.99,,,0.02,Acu-Link.com,2013-09-03 03:19:00,
2013-09-02 20:34:00,66.9,56.0,29.78,NNE,22,0.0,-999.0,68,-99.99,,,0.02,Acu-Link.com,2013-09-03 03:34:00,
2013-09-02 20:50:00,66.2,56.1,29.79,NNE,22,0.0,-999.0,70,-99.99,,,0.02,Acu-Link.com,2013-09-03 03:50:00,
2013-09-02 21:05:00,65.5,54.7,29.79,SW,225,0.0,-999.0,68,-99.99,,,0.02,Acu-Link.com,2013-09-03 04:05:00,
2013-09-02 21:20:00,65.1,55.5,29.80,SW,225,0.0,-999.0,71,-99.99,,,0.02,Acu-Link.com,2013-09-03 04:20:00,
2013-09-02 21:35:00,64.6,54.6,29.79,SW,225,0.0,-999.0,70,-99.99,,,0.02,Acu-Link.com,2013-09-03 04:35:00,
2013-09-02 21:51:00,64.2,54.2,29.78,SW,225,0.0,-999.0,70,-99.99,,,0.02,Acu-Link.com,2013-09-03 04:51:00,
2013-09-02 22:06:00,63.7,54.1,29.79,NW,315,0.0,-999.0,71,-99.99,,,0.02,Acu-Link.com,2013-09-03 05:06:00,
2013-09-02 22:21:00,63.5,54.3,29.79,WNW,292,0.0,-999.0,72,-99.99,,,0.02,Acu-Link.com,2013-09-03 05:21:00,
2013-09-02 22:37:00,63.0,53.8,29.79,East,90,0.0,-999.0,72,-99.99,,,0.02,Acu-Link.com,2013-09-03 05:37:00,
2013-09-02 22:52:00,62.8,54.4,29.80,NW,315,0.0,-999.0,74,-99.99,,,0.02,Acu-Link.com,2013-09-03 05:52:00,
2013-09-02 23:07:00,62.8,54.8,29.79,WNW,292,0.0,-999.0,75,-99.99,,,0.02,Acu-Link.com,2013-09-03 06:07:00,
2013-09-02 23:23:00,62.2,54.2,29.79,WNW,292,0.0,-999.0,75,-99.99,,,0.02,Acu-Link.com,2013-09-03 06:23:00,
2013-09-02 23:38:00,61.9,53.9,29.80,East,90,0.0,-999.0,75,-99.99,,,0.02,Acu-Link.com,2013-09-03 06:38:00,
2013-09-02 23:53:00,61.2,52.8,29.80,WNW,292,0.0,-999.0,74,-99.99,,,0.02,Acu-Link.com,2013-09-03 06:53:00,